Location: Yliskallo
(61.5000°N, 22.9000°E)
Time: 18:59:48
(UTC+00:00)

Daily predictions for brighter satellites

Satellite Brightness Start Highest point End
(mag) Time Altitude Azimuth Time Altitude Azimuth Time Altitude Azimuth
SL-8 Rocket 4.5 16:47:26 10° SSE 16:53:02 37° E 16:58:38 10° NNE
Cosmos 1302 Rocket 4.1 16:49:05 10° SW 16:54:20 87° NW 16:59:37 10° NE
USA 307 4.4 16:51:03 10° WSW 16:54:46 29° S 16:58:27 10° SE
USA 306 4.4 16:52:17 10° WSW 16:56:02 29° S 16:59:43 10° SE
Meteor 2-12 Rocket 4.5 16:50:32 10° S 16:56:31 62° E 17:02:35 10° NNE
Cosmos 1470 Rocket 3.6 16:52:12 10° S 16:56:36 64° E 17:00:59 10° NNE
DNEPR-1 R/B 4.2 16:54:27 10° W 16:59:45 60° N 17:04:15 10° E
Meteor 1-23 Rocket 4.4 16:55:22 10° NNW 17:00:51 52° ENE 17:06:22 10° SE
ATLAS CENTAUR R/B 2.0 16:58:10 10° SSW 17:01:24 30° SE 17:04:44 10° ENE
Cosmos 1844 Rocket 4.4 16:56:21 10° NW 17:01:25 37° WSW 17:06:28 10° S
Cosmos 1703 Rocket 3.7 16:57:51 10° NNW 17:02:17 84° WSW 17:06:40 10° S
Meteor 1-25 Rocket 4.3 16:56:53 10° SSW 17:02:36 87° WNW 17:08:16 10° NNE
USA 308 4.4 17:01:49 10° WSW 17:05:29 28° SSW 17:09:08 10° SE
Cosmos 2322 4.5 17:01:35 10° S 17:06:29 31° ESE 17:11:26 10° NE
Cosmos 2084 3.6 17:02:49 10° W 17:07:10 78° N 17:11:37 10° ENE
CSL-04 Rocket 3.7 17:02:13 10° SSE 17:07:45 87° ENE 17:13:15 10° NNW
ASTEX 1 4.3 17:03:55 10° NNE 17:08:07 28° E 17:12:17 10° SE
Cosmos 1743 4.4 17:06:48 10° ESE 17:09:02 15° E 17:11:17 10° NE
Cosmos 1666 3.1 17:07:11 10° SSE 17:10:40 38° E 17:14:12 10° NNE
Cosmos 2366 rocket 4.4 17:05:22 10° SSE 17:11:14 41° E 17:17:07 10° NNE
Sich 1 4.4 17:08:32 10° SW 17:12:47 44° WNW 17:17:05 10° N
BREEZE-M DEB (TANK) 4.3 17:11:33 10° SSW 17:12:52 12° SSE 17:14:38 10° SE
Cosmos 990 Rocket 4.1 17:08:03 10° NNW 17:13:13 64° NE 17:18:23 10° SE
CSL-04 DEB 4.3 17:09:17 10° NNE 17:13:16 74° ESE 17:17:17 10° SSW
Cosmos 1674 Rocket 4.3 17:09:40 10° N 17:13:35 32° ENE 17:17:28 10° SE
Okean-O 3.3 17:10:27 10° S 17:14:50 60° WSW 17:19:16 10° NNW
Cosmos 2297 4.1 17:09:35 10° NW 17:15:14 51° NNE 17:20:43 11° ESE
CSL-04 Debris 4.4 17:09:48 10° SSE 17:15:18 82° WSW 17:20:51 10° NNW
H-2A R/B 2.9 17:10:42 10° S 17:16:06 59° WSW 17:21:26 10° NNW
Cosmos 1933 Rocket 3.5 17:12:38 10° S 17:17:00 68° E 17:21:25 10° NNE
Cosmos 2221 Rocket 3.8 17:13:03 10° N 17:17:24 51° ENE 17:21:44 10° SE
Cosmos 2237 4.3 17:11:58 10° SSW 17:17:37 60° ESE 17:23:16 10° NE
Cosmos 1666 Rocket 4.4 17:14:25 10° SSW 17:18:39 54° WNW 17:22:56 10° N
Ariane Rocket 3.2 17:17:51 10° SE 17:22:49 54° ENE 17:27:47 10° NNW
SJ-6B 3.0 17:19:38 10° SE 17:23:35 54° ENE 17:27:28 10° N
Okean 2 4.5 17:22:18 10° N 17:25:49 26° ENE 17:28:41 13° ESE
USA 281 4.3 17:20:44 10° ENE 17:26:26 32° NNE 17:32:07 10° NW
Okean 1-7 3.8 17:22:23 10° NNW 17:26:43 58° W 17:30:58 10° S
ARIANE 5 R/B 4.2 17:24:13 12° E 17:27:04 21° NE 17:30:27 10° N
Meteor 1-11 Rocket 4.0 17:21:49 10° SSE 17:27:05 43° E 17:32:17 10° NNE
Cosmos 1727 Rocket 4.0 17:21:37 10° NNW 17:27:48 69° ENE 17:34:01 10° SSE
Cosmos 1378 Rocket 4.3 17:24:00 10° N 17:28:09 36° ENE 17:32:15 10° SE
PSLV R/B 3.9 17:24:06 10° NNE 17:28:11 61° ESE 17:32:13 10° S
Meteor 1-14 Rocket 4.2 17:22:56 10° SSW 17:28:28 84° ESE 17:34:05 10° NNE
Cosmos 1943 Rocket 2.7 17:23:35 10° NW 17:29:07 49° NNE 17:33:53 14° ESE
Cosmos 1500 3.2 17:26:25 10° SSW 17:30:10 85° WNW 17:33:58 10° NNE
Cosmos 2360 Rocket 2.2 17:25:01 10° SSW 17:30:35 63° ESE 17:36:13 10° NE
USA 186 1.2 17:29:07 10° SSE 17:31:41 69° ENE 17:34:28 10° NNW
Cosmos 2278 Rocket 2.4 17:27:03 10° NW 17:32:44 74° SW 17:38:23 10° SSE
OBJECT-B 1.0 17:29:47 10° SE 17:32:56 50° ENE 17:36:05 10° N
Cosmos 2341 Rocket 4.0 17:28:14 10° S 17:34:29 73° E 17:40:43 10° NNE
SAR-Lupe-4 3.7 17:31:09 10° NNE 17:34:41 52° ESE 17:38:12 10° S
SJ 16-02 1.6 17:31:10 10° NW 17:35:35 71° WSW 17:39:58 10° SSE
Cosmos 1707 4.3 17:32:35 10° N 17:35:35 20° NE 17:37:18 16° E
YAOGAN 1 4.1 17:32:12 10° SSW 17:36:18 40° W 17:40:26 10° NNW
Cosmos 2333 4.5 17:31:47 10° S 17:37:11 47° ESE 17:42:41 10° NE
Cosmos 2237 Rocket 3.5 17:34:52 10° SE 17:38:34 18° E 17:42:17 10° ENE
COSMO-SKYMED 1 3.2 17:35:15 10° NNE 17:39:32 59° WNW 17:43:50 10° SW
Okean 3 3.7 17:36:03 10° NNW 17:40:19 74° WSW 17:44:36 10° S
MOS 1 4.3 17:35:38 10° SSE 17:41:17 72° ENE 17:46:57 10° NNW
SeaSat 1 3.3 17:37:42 10° NE 17:41:54 27° ESE 17:46:04 10° SSE
Meteor 2-20 Rocket 4.5 17:38:25 10° NNW 17:44:31 65° ENE 17:50:37 10° SSE
MOS 1 Rocket 4.4 17:39:43 10° N 17:44:37 53° WNW 17:49:46 10° SW
Meteor 1-5 Rocket 4.1 17:39:13 10° S 17:44:42 79° ESE 17:50:26 10° NNE
Cosmos 2218 Rocket 4.1 17:39:01 10° S 17:45:19 63° E 17:51:35 10° NNE
Cosmos 1544 4.0 17:44:07 10° SSE 17:47:17 28° E 17:50:29 10° NNE
Cosmos 1980 Rocket 3.3 17:41:50 10° W 17:47:18 44° NNW 17:52:48 10° NE
Cosmos 1536 3.0 17:44:21 10° S 17:48:11 47° E 17:52:02 10° NNE
SPOT 3 Rocket 3.8 17:43:45 11° SE 17:48:31 50° ENE 17:53:35 10° NNW
Cosmos 864 Rocket 4.5 17:43:18 10° S 17:49:24 62° E 17:55:35 10° NNE
EP 1 4.4 17:47:57 10° WNW 17:50:38 85° NNE 17:52:18 24° ESE
Cosmos 2123 Rocket 4.3 17:44:48 10° N 17:50:52 48° ENE 17:56:18 13° SE
MetOp-A 4.3 17:47:09 10° SSE 17:52:32 80° WSW 17:57:57 10° NNW
Cosmos 1959 Rocket 4.4 17:48:32 10° S 17:54:34 68° E 18:00:42 10° NNE
FREGAT/IRIS 2.8 17:55:22 25° NNE 17:55:22 25° NNE 17:56:32 10° N
SAR-Lupe-1 4.0 17:51:31 10° NNE 17:55:09 81° ESE 17:58:45 10° SSW
Cosmos 1937 Rocket 3.4 17:50:01 10° NNW 17:55:15 77° NE 17:59:38 14° SE
SPOT 1/Viking Rocket 4.2 17:53:18 18° ESE 17:56:34 37° NE 18:01:20 10° N
Resurs 01 Rocket 1.9 17:54:08 16° SE 17:57:26 49° ENE 18:01:42 10° N
Cosmos 2333 Rocket 2.4 17:52:31 10° SSW 17:58:02 52° ESE 18:03:36 10° NE
Cosmos 2322 Rocket 2.5 17:58:35 10° SW 18:04:12 70° NW 18:09:53 10° NE
Lacrosse 4 Rocket 1.9 18:00:52 10° SSW 18:05:07 44° SE 18:09:23 10° NE
GP-B 4.0 18:01:11 10° SSW 18:05:33 53° W 18:09:56 10° N
Cosmos 1674 4.3 18:03:39 10° N 18:06:14 18° NE 18:06:41 17° ENE
CZ-4B R/B 3.3 18:03:31 10° N 18:06:15 29° WNW 18:08:59 10° SW
Cosmos 1697 Rocket 4.1 18:01:23 10° W 18:06:33 35° NNW 18:11:43 10° NE
Cosmos 1842 3.3 18:03:32 10° N 18:07:27 57° ENE 18:09:54 21° SE
Cosmos 1461 3.5 18:03:00 10° W 18:07:45 67° NNW 18:11:34 15° ENE
SPOT 5 3.9 18:06:32 20° E 18:08:10 25° NE 18:11:46 10° N
ERBS 3.1 18:05:13 10° WSW 18:08:19 37° S 18:09:27 27° SE
IGS 5A 3.8 18:08:00 24° SE 18:10:11 46° ENE 18:14:11 10° N
ERS-2 2.3 18:07:08 10° NNE 18:10:49 75° WNW 18:14:28 10° SSW
CZ-2C R/B 2.6 18:05:24 10° NNE 18:10:57 84° ESE 18:16:20 10° SSW
IRS-1A Rocket 4.3 18:05:45 10° SSE 18:11:20 79° WSW 18:16:54 10° NNW
Cosmos 192 4.2 18:06:46 10° SSW 18:11:39 71° ESE 18:16:36 10° NE
Cosmos 1607 4.3 18:05:25 10° WNW 18:11:55 65° N 18:16:46 19° E
Cosmos 1869 Rocket 3.6 18:07:56 10° SSW 18:12:21 88° W 18:16:50 10° NNE
Resurs 1-3 3.5 18:08:04 10° SSE 18:12:23 84° ENE 18:16:50 10° NNW
Cosmos 1689 Rocket 2.8 18:09:40 10° N 18:12:31 53° WNW 18:15:21 10° SW
CZ-4 R/B 4.4 18:10:14 10° SW 18:13:02 18° W 18:15:53 10° NW
Cosmos 2219 Rocket 2.2 18:09:00 10° SSW 18:14:29 57° ESE 18:20:01 10° NE
OPS 6432 4.1 18:11:45 10° WSW 18:15:13 76° SSE 18:16:24 34° ENE
Cosmos 1378 4.5 18:11:56 10° NNW 18:15:29 41° W 18:19:00 10° SSW
H-2A R/B 4.4 18:13:02 10° N 18:16:24 25° NW 18:19:45 10° WSW
Cosmos 1867 4.0 18:13:52 10° W 18:19:19 61° N 18:23:26 18° ENE
Cosmos 1238 Rocket 2.3 18:16:43 10° S 18:20:22 70° E 18:23:33 10° NNE
Cosmos 1626 4.1 18:20:26 10° NNE 18:22:44 15° NE 18:22:45 15° NE
Cosmos 1980 4.3 18:17:50 10° S 18:22:45 32° ESE 18:27:42 10° NE
Cosmos 1656 Rocket 4.2 18:17:35 10° NW 18:22:49 45° NNE 18:25:41 25° E
Terra 3.0 18:22:01 23° E 18:23:30 27° NE 18:27:29 10° N
ERS-1 Rocket 3.7 18:23:07 26° E 18:25:05 36° NE 18:29:40 10° N
NOSS 3-2 (A) 4.0 18:21:52 10° S 18:27:09 35° SE 18:33:12 10° ENE
COSMOS 2428 2.7 18:23:38 10° SSW 18:29:14 61° ESE 18:34:52 10° NE
Cosmos 1733 Rocket 3.0 18:25:19 10° S 18:29:36 58° E 18:33:56 10° NNE
SL-16 R/B 3.0 18:27:11 10° WSW 18:32:43 51° NNW 18:38:17 10° NE
Cosmos 2369 Rocket 2.3 18:27:52 10° NW 18:33:28 62° NE 18:36:12 30° ESE
Cosmos 1898 Rocket 4.1 18:29:29 10° NW 18:34:36 55° WSW 18:39:11 13° S
Spot 2 Rocket 3.7 18:34:24 30° ESE 18:36:40 54° ENE 18:41:41 10° NNW
SL-8 Rocket 4.4 18:31:59 10° SSW 18:38:09 66° WNW 18:44:20 10° NNE
CENTAUR R/B 3.2 18:33:32 10° S 18:39:02 33° ESE 18:45:24 10° ENE
ATLAS CENTAUR R/B 1.1 18:36:17 10° WSW 18:39:59 84° NNW 18:41:38 32° ENE
NOSS 0 Rocket 4.1 18:34:55 10° S 18:40:43 45° ESE 18:46:33 10° NE
Cosmos 1743 2.6 18:40:17 10° S 18:44:11 81° ESE 18:48:07 10° NNE
Cosmos 1666 4.4 18:42:50 10° SW 18:46:17 34° WNW 18:49:48 10° N
Cosmos 2084 3.4 18:42:29 10° WNW 18:46:53 84° NNE 18:48:19 43° E
DNEPR-1 R/B 3.6 18:42:28 10° WNW 18:47:27 84° NNE 18:48:53 43° ESE
ASTEX 1 3.6 18:42:42 10° N 18:47:36 70° W 18:52:27 10° SSW
Cosmos 2322 3.7 18:44:27 10° SW 18:50:12 87° NW 18:55:59 10° NE
Cosmos 1674 Rocket 4.2 18:47:25 10° NNW 18:51:40 54° W 18:55:15 14° S
Cosmos 372 Rocket 4.0 18:47:58 10° NW 18:53:11 79° WSW 18:55:37 32° SSE
Landsat 7 3.8 18:55:43 31° SSE 18:58:03 86° WSW 19:02:51 10° NNW
Cosmos 1975 3.1 18:59:29 49° ENE 18:59:29 49° ENE 19:03:00 10° NNE
Cosmos 2297 4.0 18:53:58 10° NW 18:59:40 64° WSW 19:02:40 28° SSE
Cosmos 2150 Rocket 4.1 18:54:33 10° NW 19:00:05 75° NE 19:02:01 41° SE
Ariane Rocket 4.2 18:57:11 10° SSW 19:01:59 40° W 19:06:49 10° NNW
ARIANE 5 R/B 2.6 19:01:45 48° SE 19:02:56 74° ENE 19:07:29 10° NNW
Okean 2 3.7 18:58:55 10° NNW 19:03:00 63° W 19:04:48 31° S
Cosmos 1025 Rocket 3.4 19:00:05 10° N 19:04:15 45° ENE 19:04:21 45° ENE
In-Cosmos 22 4.2 18:58:44 10° NNW 19:04:28 80° ENE 19:06:59 36° SSE
OBJECT-B 3.3 19:02:51 10° SW 19:05:24 21° W 19:07:59 10° NW
Cosmos 1378 Rocket 4.4 19:01:48 10° NNW 19:06:06 49° W 19:09:20 17° SSW
Cosmos 1763 Rocket 3.6 19:01:21 10° S 19:06:29 51° ESE 19:11:37 10° NE
MetOp-B 4.2 19:04:20 27° S 19:07:21 77° WSW 19:12:46 10° NNW
NOSS 3-2 (C) 3.9 19:03:24 10° SSW 19:15:07 10° ENE 19:08:11 37° SE
USA 281 3.5 19:07:16 33° E 19:10:03 55° NE 19:16:27 10° NW
Cosmos 1125 Rocket 3.5 19:04:50 10° NNW 19:10:11 72° NE 19:11:37 48° ESE
Meteor 1-11 Rocket 4.5 19:04:58 10° SW 19:10:29 53° WNW 19:15:56 10° NNE
Cosmos 1975 Rocket 3.0 19:07:18 10° NNW 19:11:51 83° ENE 19:12:45 57° SSE
Cosmos 1707 2.7 19:08:01 10° NNW 19:11:59 83° WSW 19:12:29 66° S
Cosmos 1943 Rocket 2.3 19:07:32 10° NW 19:13:12 69° SW 19:15:25 37° SSE
SJ 16-02 4.1 19:10:46 10° WNW 19:13:26 16° W 19:16:06 10° SW
Cosmos 2360 Rocket 3.0 19:09:17 10° WSW 19:14:50 51° NNW 19:20:25 10° NE
Cosmos 2278 Rocket 4.3 19:11:46 10° NW 19:16:02 22° WSW 19:20:17 10° SSW
Cosmos 1908 Rocket 3.4 19:16:54 65° ESE 19:16:57 65° E 19:21:19 10° NNE
Cosmos 468 Rocket 3.9 19:12:55 10° SSW 19:18:09 62° ESE 19:23:22 10° NE
SeaSat 1 2.3 19:15:01 10° NE 19:20:00 89° SE 19:24:58 10° SW
Cosmos 1535 Rocket 4.4 19:16:24 23° S 19:20:30 70° E 19:26:50 10° NNE
Cosmos 1821 Rocket 4.0 19:14:19 10° SSW 19:20:31 79° WNW 19:26:42 10° NNE
Cosmos 2237 Rocket 2.1 19:16:01 10° SSW 19:21:38 61° ESE 19:27:16 10° NE
Cosmos 1544 4.2 19:18:36 10° SW 19:22:08 45° WNW 19:25:43 10° N
USA 81 4.5 19:20:54 10° SSW 19:26:07 61° WNW 19:31:22 10° N
SWAS 4.4 19:22:49 10° SW 19:27:10 87° NW 19:28:53 36° NE
Cosmos 1340 Rocket 3.5 19:28:58 43° NNE 19:28:58 43° NNE 19:31:45 10° NNE
SPOT 3 Rocket 4.5 19:24:24 18° SSW 19:28:03 45° W 19:33:06 10° NNW
CARTOSAT-1 3.4 19:28:50 77° SSE 19:29:09 89° ENE 19:33:31 10° NNW
USA 234 4.3 19:33:09 26° S 19:33:09 26° S 19:36:35 10° SSW
Iridium 2 3.9 19:28:46 10° NNW 19:32:24 67° W 19:32:24 67° W
Cosmos 1980 Rocket 3.7 19:27:28 10° WNW 19:32:35 32° N 19:36:48 14° ENE
Resurs 01 Rocket 2.9 19:31:41 21° SSW 19:34:05 37° W 19:38:13 10° NNW
Cosmos 1934 Rocket 3.8 19:30:07 22° S 19:34:17 86° ESE 19:40:32 10° NNE
SPOT 1/Viking Rocket 3.8 19:33:56 38° S 19:35:50 63° WSW 19:41:01 10° NNW
CZ-2C R/B 3.6 19:32:16 10° NNE 19:37:05 73° ESE 19:37:10 73° ESE
Cosmos 1782 Rocket 4.2 19:40:41 43° NE 19:40:41 43° NE 19:43:46 10° NNE
Cosmos 1674 3.3 19:38:34 10° NNW 19:41:29 52° N 19:41:29 52° N
Cosmos 2333 Rocket 2.7 19:36:40 10° WSW 19:42:21 60° NW 19:48:05 10° NE
Lacrosse 4 Rocket 2.0 19:39:18 10° WSW 19:43:46 63° NNW 19:45:44 32° NE
Cosmos 1900 4.2 19:38:57 10° WNW 19:44:06 82° NNE 19:44:33 73° E
Cosmos 2298 Rocket 4.3 19:39:15 10° NW 19:44:32 63° WSW 19:45:37 51° SSW
SL-16 R/B 3.7 19:47:49 22° ENE 19:47:49 22° ENE 19:49:59 10° NE
Cosmos 540 Rocket 4.3 19:47:07 36° NE 19:47:07 36° NE 19:50:19 10° NE
SPOT 5 2.6 19:45:46 82° SSW 19:45:54 85° WSW 19:50:21 10° NNW
Tsikada Rocket 4.4 19:40:25 10° N 19:46:26 45° ENE 19:47:18 42° E
Cosmos 1461 3.5 19:42:40 10° WNW 19:47:19 56° N 19:47:56 52° NE
USA 238 DEB 3.6 19:42:03 10° SW 19:48:39 64° SE 19:55:38 10° ENE
USA 238 3.6 19:42:10 10° SW 19:48:45 63° SE 19:55:44 10° ENE
Cosmos 2322 Rocket 3.6 19:43:55 10° W 19:49:06 36° NNW 19:54:21 10° NE
Cosmos 1697 Rocket 4.0 19:46:46 10° NW 19:51:55 34° NNE 19:54:27 23° ENE
Cosmos 841 Rocket 4.3 19:58:40 39° NE 19:58:40 39° NE 20:02:04 10° NE
Cosmos 2263 4.2 19:51:50 10° NW 19:57:34 72° SW 19:58:23 62° S
Cosmos 2100 Rocket 4.3 19:58:26 47° E 19:58:26 47° E 20:04:11 10° NNE
Cosmos 2219 Rocket 2.8 19:53:04 10° WSW 19:58:35 54° NW 20:04:10 10° NE
Cosmos 1626 3.4 19:54:55 10° NNW 19:57:17 36° N 19:57:17 36° N
ALOS 2 4.2 20:00:07 24° NE 20:00:07 24° NE 20:03:06 10° N
Cosmos 1607 3.9 19:53:04 10° WNW 19:59:38 90° SW 20:00:53 62° ESE
Terra 1.7 20:00:53 85° W 20:00:53 85° W 20:05:39 10° NNW
Cosmos 1867 3.6 19:57:56 10° WNW 20:03:26 71° NNE 20:04:05 64° ENE
Meteor 2-5 Rocket 3.7 19:57:32 10° NNW 20:03:33 77° ENE 20:04:10 70° ESE
ERS-1 Rocket 3.1 20:03:06 59° SW 20:03:42 64° WSW 20:08:45 10° NNW
Cosmos 1980 3.6 20:00:44 10° SW 20:06:24 83° NW 20:12:07 10° NE
Cosmos 1656 Rocket 3.5 20:01:21 10° NW 20:06:46 72° SW 20:07:03 71° SSW
SL-14 R/B 4.5 20:06:30 10° NNW 20:09:06 39° N 20:09:06 39° N
COSMOS 2428 3.4 20:08:08 10° WSW 20:13:43 53° NNW 20:19:20 10° NE
Cosmos 1656 4.4 20:10:45 10° NW 20:15:56 42° NNE 20:16:48 39° NE
Cosmos 1802 Rocket 4.4 20:17:20 46° ENE 20:17:20 46° ENE 20:22:49 10° NNE
NOSS 3-2 (A) 3.4 20:11:13 10° WSW 20:17:18 80° SSE 20:24:31 10° ENE
Cosmos 2369 Rocket 2.7 20:12:06 10° NW 20:17:28 47° WSW 20:18:00 45° SW
SL-16 R/B 3.7 20:12:52 10° WNW 20:17:58 33° N 20:23:00 10° ENE
Cosmos 1605 Rocket 4.1 20:15:57 41° SSW 20:18:21 79° WNW 20:24:46 10° NNE
Cosmos 921 Rocket 4.3 20:20:10 34° NNE 20:20:10 34° NNE 20:22:47 10° NNE
ATLAS CENTAUR R/B 2.7 20:15:29 10° W 20:17:48 33° WNW 20:17:48 33° WNW
Cosmos 1536 Rocket 4.2 20:18:23 10° NNW 20:21:53 53° NW 20:21:53 53° NW
Intercosmos 25 4.0 20:21:01 10° NNW 20:24:49 76° NW 20:24:49 76° NW
NOSS 0 Rocket 4.1 20:20:53 10° WSW 20:27:02 70° NW 20:33:14 10° NE
CENTAUR R/B 2.6 20:22:22 10° SW 20:28:50 75° SSE 20:36:37 10° ENE
Cosmos 1153 Rocket 4.4 20:35:27 70° SSW 20:36:15 85° WNW 20:42:32 10° NNE
ARIANE 5 R/B 4.4 20:39:17 24° WSW 20:39:52 25° W 20:43:37 10° NW
Cosmos 1025 Rocket 4.4 20:37:52 10° NNW 20:41:15 34° WNW 20:41:15 34° WNW
Cosmos 1459 Rocket 3.9 20:43:35 69° ENE 20:43:35 69° ENE 20:49:09 10° NNE
ATLAS 5 CENTAUR R/B 4.4 20:40:08 10° W 20:40:39 13° W 20:40:39 13° W
Cosmos 1763 Rocket 4.3 20:43:14 10° WSW 20:48:25 51° NW 20:53:36 10° NNE
Meteor 1-24 Rocket 3.9 20:44:25 10° NNW 20:50:28 72° WSW 20:50:33 72° WSW
Cosmos 2016 Rocket 4.2 20:54:58 58° NE 20:54:58 58° NE 21:00:11 10° NNE
USA 281 3.3 20:54:08 61° SW 20:54:35 63° WSW 21:01:08 10° NW
Okean 2 Rocket 4.5 20:56:50 35° N 20:56:50 35° N 20:59:29 10° NNE
Cosmos 1943 Rocket 4.0 20:52:01 10° WNW 20:56:05 21° WSW 20:56:57 20° WSW
SeaSat 1 3.8 20:52:41 10° NE 20:57:15 38° NNW 21:01:48 10° W
Cosmos 2360 Rocket 3.8 20:54:52 10° WNW 20:59:59 33° N 21:05:06 10° ENE
Cosmos 2237 Rocket 2.9 21:00:19 10° WSW 21:05:54 53° NNW 21:11:31 10° NE
Cosmos 1932 4.5 21:09:53 10° WNW 21:16:17 75° NNE 21:16:17 75° NNE
Cosmos 2061 Rocket 4.1 21:17:03 74° NE 21:17:03 74° NE 21:22:55 10° NNE
Cosmos 1980 Rocket 3.1 21:12:27 10° NW 21:17:53 42° NNE 21:18:33 41° NE
Cosmos 2173 Rocket 4.1 21:19:50 73° W 21:19:58 74° WNW 21:26:24 10° NNE
Lacrosse 4 Rocket 3.2 21:18:54 10° WNW 21:22:05 33° NW 21:22:05 33° NW
Cosmos 2233 Rocket 4.4 21:24:32 52° NE 21:24:32 52° NE 21:29:28 10° NNE
Cosmos 540 Rocket 4.3 21:26:51 46° NW 21:27:02 46° NW 21:32:03 10° NNE
Cosmos 2333 Rocket 3.7 21:22:24 10° WNW 21:27:39 35° N 21:32:56 10° NE
SL-16 R/B 2.7 21:29:37 57° NNE 21:29:37 57° NNE 21:34:20 10° NE
Cosmos 371 Rocket 4.5 21:26:31 10° NNW 21:29:40 40° NNW 21:29:40 40° NNW
Tsikada Rocket 4.3 21:26:08 10° NNW 21:32:09 59° W 21:32:09 59° W
Cosmos 2322 Rocket 3.7 21:29:26 10° NW 21:34:32 33° N 21:37:33 20° ENE
Cosmos 1725 Rocket 4.1 21:35:44 71° N 21:35:44 71° N 21:41:16 10° NNE
ALOS 2 4.3 21:37:30 32° NNW 21:37:30 32° NNW 21:39:54 10° NNW
Cosmos 1697 Rocket 3.2 21:31:17 10° NW 21:36:11 55° N 21:36:11 55° N
Cosmos 841 Rocket 4.5 21:38:40 43° NW 21:39:00 44° NW 21:44:05 10° NNE
Terra 3.9 21:39:46 20° W 21:39:46 20° W 21:42:53 10° NW
USA 238 DEB 3.7 21:32:46 10° W 21:39:36 81° N 21:46:52 10° ENE
USA 238 3.7 21:32:52 10° W 21:39:42 81° NNW 21:46:58 10° ENE
Cosmos 2219 Rocket 3.8 21:38:33 10° WNW 21:43:38 33° N 21:48:45 10° NE
Cosmos 2100 Rocket 4.5 21:43:07 53° W 21:43:39 55° WNW 21:49:52 10° NNE
ATLAS 3B R/B 3.8 21:47:48 31° ENE 21:47:48 31° ENE 21:51:11 10° ENE
COSMOS 2428 4.3 21:53:57 10° WNW 21:59:06 33° N 22:04:18 10° ENE
Cosmos 2369 Rocket 4.5 21:57:48 10° WNW 21:59:47 13° W 21:59:47 13° W
Cosmos 1802 Rocket 4.5 22:02:08 54° WNW 22:02:20 54° WNW 22:08:36 10° NNE
SL-16 R/B 3.4 21:58:08 10° NW 22:03:26 38° NNE 22:04:51 33° NE
Cosmos 2285 Rocket 4.3 21:58:18 10° NW 22:03:34 61° WNW 22:03:34 61° WNW
NOSS 3-2 (A) 3.7 22:02:00 10° W 22:08:26 76° N 22:16:05 10° E
SL-16 R/B 3.4 22:17:08 40° ENE 22:17:47 41° NE 22:23:31 10° NNW
CENTAUR R/B 2.9 22:12:52 10° W 22:19:46 78° N 22:28:00 10° E
Nadezhda 4 Rocket 4.2 22:15:26 10° NNW 22:20:45 66° NNW 22:20:45 66° NNW
Cosmos 2369 4.4 22:18:42 10° NW 22:22:52 49° NNW 22:22:52 49° NNW
SeaSat 1 4.5 22:29:53 10° NE 22:33:57 26° N 22:38:02 10° WNW
Resurs 1-4 Rocket 4.3 22:32:42 10° NE 22:35:19 16° ENE 22:35:19 16° ENE
Cosmos 1603 4.4 22:38:35 51° NNE 22:38:35 51° NNE 22:42:57 10° NE
Cosmos 1943 4.0 22:39:38 48° NNE 22:39:38 48° NNE 22:43:43 10° NE
Cosmos 2360 Rocket 3.5 22:40:04 10° NW 22:45:21 37° NNE 22:48:46 20° ENE
Cosmos 2026 Rocket 4.2 22:41:49 10° NNW 22:47:18 65° NNE 22:47:18 65° NNE
NOSS 3-2 (C) 3.8 22:49:46 71° NW 22:50:21 76° N 22:58:03 10° E
Cosmos 2237 Rocket 3.8 22:45:57 10° WNW 22:51:06 33° N 22:56:14 10° NE
Cosmos 1092 Rocket 4.3 22:49:18 10° NNW 22:54:40 66° NNW 22:54:40 66° NNW
Cosmos 1980 Rocket 3.2 22:56:43 10° NW 23:00:18 40° NW 23:00:18 40° NW
Lacrosse 4 Rocket 4.4 22:58:18 10° NW 22:58:26 11° NW 22:58:26 11° NW
Cosmos 1464 Rocket 4.2 23:09:46 68° NNW 23:09:46 68° NNW 23:15:28 10° NNE
Cosmos 2333 Rocket 3.6 23:07:59 10° NW 23:13:18 36° NNE 23:18:38 10° E
SL-16 R/B 3.5 23:11:26 27° WNW 23:13:38 36° NNW 23:18:53 10° NE
Cosmos 1833 Rocket 4.3 23:16:27 25° E 23:16:27 25° E 23:19:36 10° NE
Cosmos 2082 Rocket 4.1 23:18:56 20° E 23:18:56 20° E 23:21:58 10° NE
Cosmos 2322 Rocket 2.8 23:14:06 10° NW 23:19:21 54° NNE 23:19:21 54° NNE
Cosmos 1697 Rocket 4.3 23:15:27 10° NW 23:17:54 26° WNW 23:17:54 26° WNW
Cosmos 1655 Rocket 4.3 23:18:04 10° NNW 23:24:25 63° ENE 23:24:25 63° ENE
Cosmos 2219 Rocket 3.6 23:23:45 10° NW 23:28:58 36° NNE 23:34:11 10° E
USA 238 DEB 3.7 23:24:00 10° WNW 23:30:59 82° NNE 23:38:22 10° ESE
USA 238 3.7 23:24:07 10° WNW 23:31:05 82° NNE 23:38:29 10° ESE
COSMOS 2406 4.4 23:34:56 35° E 23:34:56 35° E 23:38:55 10° NE
ATLAS 3B R/B 2.6 23:35:00 77° NNW 23:35:09 78° NNW 23:42:09 10° ENE
COSMOS 2428 4.0 23:39:25 10° NW 23:44:45 38° NNE 23:50:05 10° E
CZ-2D R/B 3.2 23:40:01 10° NNE 23:44:11 37° ENE 23:44:11 37° ENE
SL-16 R/B 2.9 23:42:36 10° NW 23:46:41 48° NNW 23:46:41 48° NNW
Cosmos 1634 Rocket 4.0 23:49:11 77° NE 23:49:11 77° NE 23:55:07 10° NNE
NOSS 3-1 (C) 4.2 23:53:16 43° E 23:53:16 43° E 23:58:31 10° ENE
